Location: Newark
(40.8000°N, 14.5000°E)
Time: 01:20:18
(UTC+00:00)

ISS - Visible Passes

Search period start: 15 October 2019 00:00
Search period end: 25 October 2019 00:00
Orbit: 411 x 421 km, 51.6° (Epoch: 14 October)

Date Brightness Start Highest point End Pass type
(mag) Time Alt. Az. Time Alt. Az. Time Alt. Az.
22 Oct -0.9 04:49:10 10° S 04:51:44 20° SE 04:54:18 10° E visible
23 Oct -0.6 04:02:06 10° SSE 04:03:22 12° SE 04:04:38 10° ESE visible
24 Oct -3.1 04:47:49 10° SW 04:51:08 59° SE 04:54:26 10° ENE visible
